User: anonymous   Login
Location: Newark
(34.9500°N, 139.9667°E)
Time: 21:57:13
(UTC+00:00)
Language:

deb Explorer IX - Orbit

View from above orbital plane
View from above orbital plane
View from above satellite
View from above satellite

Ground track
Ground track

The orbit data is extracted from the following two-line orbital elements,

1    85U 61004C   19342.91257529 +.00001782 +00000-0 +40484-3 0  9994
2    85 038.7709 277.6141 0388169 303.1711 053.2367 14.20030931903852
Epoch (UTC): 08 December 2019 21:54:06
Eccentricity: 0.0388169
inclination: 38.7709°
perigee height: 545 km
apogee height: 1105 km
right ascension of ascending node: 277.6141°
argument of perigee: 303.1711°
revolutions per day: 14.20030931
mean anomaly at epoch: 53.2367°
orbit number at epoch: 90385

The dashed part of the orbit path shows where the satellite is in the earth's shadow,  

DLR